Cloud_Cover
0 1 0 0 0 0 0 0 0 0 0 0 0 0 0 0 0 0 0 0 0 3 0 0 0 0 0 0 0 0 40 40 100 100 53 46 40 92 84 77 94 100 100
0 3 15 0 0 0 0 0 0 0 0 0 0 0 0 0 0 0 0 0 0 0 0 0 0 0 0 0 0 5 32 67 100 100 8 59 5 24 33 63 90 99 94
1 40 100 1 0 0 0 0 0 0 0 0 0 0 0 0 0 0 0 0 0 0 0 0 0 0 0 0 0 0 22 42 100 100 99 32 9 35 5 5 75 6 100
3 63 36 5 0 0 0 0 0 0 0 0 0 0 0 0 0 0 9 0 0 0 0 0 0 3 2 0 0 5 6 41 100 100 100 100 79 12 5 5 5 5 21
16 87 5 5 0 0 0 0 0 0 0 0 0 0 0 0 0 62 86 20 0 0 0 0 1 16 12 0 1 15 13 6 100 100 100 100 54 83 39 74 44 5 17
9 5 58 5 0 0 3 5 5 0 0 0 0 2 5 5 0 1 0 0 0 0 0 0 14 100 90 5 5 95 60 89 97 100 100 100 100 52 97 29 43 5 19
61 63 69 4 1 5 5 5 5 4 0 0 0 3 29 4 2 0 0 0 0 0 0 0 52 100 57 5 100 100 93 88 100 90 100 100 100 100 99 94 95 16 35
66 90 5 0 5 5 5 5 5 0 0 0 2 5 5 4 0 0 5 24 6 2 1 0 40 100 72 50 100 100 100 100 100 100 100 100 100 100 92 100 100 99 47
5 5 3 0 5 26 8 5 5 5 5 1 3 0 4 2 0 2 16 38 99 92 3 4 72 92 94 18 83 88 100 100 100 100 100 100 100 100 100 100 94 96 78
5 0 0 5 9 14 5 5 8 5 5 0 0 55 88 20 27 6 6 71 100 100 9 4 5 88 85 90 100 100 100 100 100 100 100 100 100 100 100 100 100 100 99
0 0 5 19 35 88 92 5 100 6 14 0 1 0 16 51 49 5 18 90 100 71 16 5 4 89 100 100 100 100 100 100 100 100 100 100 100 100 87 100 100 100 88
0 5 5 5 100 99 100 60 2 63 12 4 0 0 32 17 9 5 84 71 54 24 0 0 51 100 100 100 100 100 100 100 100 100 100 100 100 100 75 100 100 100 91
28 69 4 0 25 10 36 76 72 5 98 6 0 11 88 32 5 91 97 56 1 3 0 0 33 100 100 100 100 100 100 100 100 100 100 100 100 100 100 100 100 100 93
100 100 99 16 93 5 38 95 100 62 0 1 0 44 2 5 5 79 35 44 5 0 0 0 95 100 100 100 100 100 100 100 100 100 100 100 100 100 100 100 100 100 100
100 100 100 100 33 11 64 100 100 53 19 0 0 1 1 5 7 20 51 7 2 2 34 4 100 100 100 100 100 100 100 100 100 100 100 100 100 100 100 100 100 100 100
98 100 77 24 5 89 10 29 88 86 100 100 38 34 10 2 8 18 100 91 40 62 4 30 100 100 100 100 100 100 100 100 100 100 100 100 100 100 100 100 100 100 100
40 2 5 3 22 0 2 0 1 39 6 0 1 5 5 51 5 64 100 100 23 0 16 6 83 100 100 100 100 100 100 100 100 100 100 100 100 100 100 100 100 100 100
22 2 0 0 2 0 0 0 2 12 48 68 44 15 26 6 74 63 100 87 54 20 0 4 66 100 100 100 100 100 100 100 100 100 100 100 100 100 100 100 100 100 100
0 0 0 1 24 3 0 0 0 0 8 60 52 16 6 39 98 67 100 100 99 5 0 40 94 100 100 100 100 100 100 100 100 100 100 100 100 100 100 100 100 100 100
1 4 0 59 56 1 4 3 0 11 7 40 38 35 23 62 86 100 98 100 100 89 18 52 73 81 100 100 100 100 100 100 100 100 100 100 100 100 100 100 100 100 100
1 100 3 0 32 4 3 5 5 5 65 100 58 17 56 79 37 94 100 100 100 100 100 5 0 52 60 100 83 100 100 100 100 100 100 100 100 100 100 100 100 100 100
25 100 54 10 65 81 43 81 10 20 29 68 24 5 96 43 5 58 100 100 98 100 100 31 2 0 10 44 100 100 100 100 100 100 100 100 100 100 100 100 100 100 100
5 81 18 88 84 80 100 80 53 57 41 94 56 98 66 18 5 0 8 100 100 95 99 100 7 0 1 13 9 76 100 100 100 100 100 100 100 100 100 100 100 100 100
71 5 7 44 53 75 32 43 86 100 99 74 40 5 13 17 5 3 0 26 100 100 100 74 8 4 0 1 42 5 100 90 100 100 100 100 100 100 100 100 100 100 100
36 80 96 45 80 31 5 3 7 6 5 5 5 5 5 5 28 5 5 1 0 5 20 95 68 4 0 0 0 10 34 84 7 99 100 100 100 100 100 100 100 100 100
51 78 58 43 36 7 5 4 5 5 5 5 5 5 2 1 2 0 0 0 0 0 0 1 3 5 4 0 0 4 5 5 77 5 59 100 100 100 100 100 100 100 100